Погода в Гуйлине

Китай     25°15′38″N   110°16′57″E
темп.,
°C
ветер,
м/с
пор.,
м/с
влажн.,
%
обл.,
%
осадки,
мм/ч
давл.,
гПа
погр.,
м
11 мая, вт
вт1123:00+24сз1194100 4.6 100513
02:00+23ююв009676 5.6 100413
05:00+22юз11955 0.3 100513
08:00+24юз13886 1.1 1007253
11:00+28ююз477730 1.6 10061055
14:00+30юз587439 5.9 10041239
17:00+28юз368285 5.2 1003404
20:00+25ююз229037 13.4 100443
12 мая, ср
ср1223:00+23с239798 6.6 100675
02:00+22сз1198100 12.5 100553
05:00+22с1298100 3.9 100568
08:00+23ссз1196100 9.3 1008148
11:00+27юв228553 3.6 1007587
14:00+29юз247429 9.0 1004943
17:00+29ююз35805 5.1 1003822
20:00+26юз0187100 12.3 100411
13 мая, чт
чт1323:00+25ссв119254 0.9 100514
02:00+23юз0096100 5.4 100416
05:00+23ююз1198100 7.6 100525
08:00+24юв1197100 15.2 1007156
11:00+28ю258287 4.8 1006390
14:00+29ююз3578100 11.8 1004866
17:00+27ююз3587100 10.2 1003134
20:00+25ююв1191100 23.8 100316
14 мая, пт
пт1423:00+24ссв1297100 10.8 100544
02:00+23сз119820 15.4 100422
05:00+22зюз119896 2.9 100418
08:00+24ю139461 5.8 1005308
11:00+28ю477956 3.5 1005997
14:00+29ююз4779100 9.4 10031008
17:00+28ю4782100 6.7 1001764
20:00+26юв1489100 11.4 1003100
15 мая, сб
сб1523:00+25юв01935 0.9 100413
02:00+24юз119594 1.6 100314
05:00+23юз119722 1.2 100436
08:00+25ююз269399 2.2 1006343
11:00+28ю478254 3.3 1006892
14:00+29ю477975 8.1 10041057
17:00+29ю3680100 5.1 1003846
20:00+26св008599 7.9 100311